Вернуться в каталог

STARLINK-31089

АктивенСвязьVLEO
NORAD 58610·PAYLOAD·🇺🇸 United States

Запущен Dec 19, 2023 с Cape Canaveral Space Force Station

Loading…

Ближайшие Пролёты (ближайшие 24 часа)

TLE

СвежийSource: CelesTrak SupGP

Эпоха: Sep 15, 2026, 01:51 UTC

1 58610C 23200X   26258.07756944  .00020122  00000+0  72880-3 0  2584
2 58610  43.0008 179.5375 0001270 273.0839  18.4437 15.27569961    15

Отслеживайте STARLINK-31089 в реальном времени с AllMySat

Download on the App Store